Regional Weather Roundup
Issued by NWS State College, PA

Home | Current Version | Previous Version | Graphics & Text | Print | Product List | Glossary On
Versions: 1 2 3 4 5 6 7 8 9 10 11 12 13 14 15 16 17 18 19 20 21 22 23 24 25 26 27 28 29 30 31 32 33 34 35 36 37 38 39 40 41 42 43 44 45 46 47 48 49 50
000
ASUS41 KCTP 041310
RWRCTP

REGIONAL WEATHER ROUNDUP
NATIONAL WEATHER SERVICE STATE COLLEGE PA
900 AM EDT TUE AUG 04 2015

Note: "fair" indicates few or no clouds below 12,000 feet with no
significant weather and/or obstructions to visibility.

* = STATION THAT DOES NOT REPORT PRECIPITATION /E.G. RAIN...SNOW...ETC/
    THUNDER OR FOG.

PAZ002>004-007>009-013>016-020>023-029>032-041400-
WESTERN PENNSYLVANIA

CITY           SKY/WX    TMP DP  RH WIND       PRES   REMARKS
ERIE           MOSUNNY   70  61  73 SW5       29.92R
MEADVILLE      SUNNY     66  58  75 W5        29.96R
FRANKLIN*      SUNNY     64  55  72 W9        29.98R
NEW CASTLE     FAIR      70  61  73 CALM      29.99R
BEAVER COUNTY  SUNNY     66  59  77 W5        29.99
BUTLER*        SUNNY     66  61  82 W9        29.99S
PITTSBURGH INT MOSUNNY   67  58  72 W7        29.98R
PITTSBURGH     SUNNY     67  55  65 W8        29.98R
INDIANA*       PTSUNNY   66  64  94 SW7       30.01R FOG
LATROBE        SUNNY     68  64  88 SW7       29.99R
WASHINGTON CO* NOT AVBL
$$

PAZ004>006-010>012-017>019-024>028-033>037-041-042-045-046-049>053-041400-
CENTRAL PENNSYLVANIA

CITY           SKY/WX    TMP DP  RH WIND       PRES   REMARKS
BRADFORD       CLOUDY    62  59  90 W7        29.96R
DUBOIS         CLOUDY    64  61  90 SW8       29.96R FOG
CLEARFIELD     MOSUNNY   68  59  73 W9        29.95S
JOHNSTOWN      MOSUNNY   65  60  84 W14       29.99R
ALTOONA        SUNNY     71  63  75 SW7       29.97R
STATE COLLEGE  SUNNY     70  64  83 W8        29.94R
WILLIAMSPORT   PTSUNNY   73  62  68 W13       29.88S
SELINSGROVE    SUNNY     73  65  75 VRB3      29.91R
FT INDIANTOWN  SUNNY     72  66  80 SW6       29.90R
CAPITAL CITY   SUNNY     75  65  70 W10       29.90S
HARRISBURG     MOSUNNY   75  66  73 W5        29.90R
YORK           SUNNY     74  67  78 VRB7      29.92
$$

PAZ038>040-043-044-047-048-054-055-060>062-067>071-041400-
EASTERN PENNSYLVANIA

CITY           SKY/WX    TMP DP  RH WIND       PRES   REMARKS
SCRANTON       SUNNY     73  63  70 SW10      29.88S
MOUNT POCONO   SUNNY     69  62  78 W8        29.92S
ALLENTOWN      SUNNY     72  67  84 CALM      29.88S
QUAKERTOWN*    SUNNY     72  66  83 SW5       29.90S
READING        SUNNY     74  66  76 W5        29.88S
LANCASTER      SUNNY     73  67  81 W9        29.91R
COATESVILLE    SUNNY     72  68  88 W7        29.92R
POTTSTOWN      SUNNY     72  68  87 SW6       29.91R
BLUE BELL      SUNNY     75  70  83 W5        29.88R
DOYLESTOWN     SUNNY     72  67  84 SW6       29.88S
WILLOW GROVE   NOT AVBL
NORTH PHILA    SUNNY     79  66  64 W9        29.89R
PHILADELPHIA   MOSUNNY   79  67  66 SW12      29.89R
$$



USA.gov is the U.S. government's official web portal to all federal, state and local government web resources and services.